Regional Weather Roundup
Issued by NWS

Home | Current Version | Previous Version | Graphics & Text | Print | Product List | Glossary On
Versions: 1 2 3 4 5 6 7 8 9 10 11 12 13 14 15 16 17 18 19 20 21 22 23 24 25 26 27 28 29 30 31 32 33 34 35 36 37 38 39 40 41 42 43 44 45 46 47 48 49 50
000
ASUS43 KLSX 051907
RWRMO

WEATHER SUMMARY FOR MISSOURI
NATIONAL WEATHER SERVICE SPRINGFIELD MO
200 PM CDT TUE MAY 05 2015

NOTE: "FAIR" INDICATES FEW OR NO CLOUDS BELOW 12,000 FEET WITH NO
       SIGNIFICANT WEATHER AND/OR OBSTRUCTIONS TO VISIBILITY.
       CURRENT SKY AND/OR WEATHER CONDITIONS ARE NOT AVAILABLE FOR
       CHILLICOTHE AND FARMINGTON.

MOZ001>031-035>038-043-044-053-054-052000-
...NORTHERN AND WESTERN MISSOURI...

CITY           SKY/WX    TMP DP  RH WIND       PRES   REMARKS
KANSAS CTY INT CLOUDY    78  57  48 S17       30.08F
KANSAS C DTWN  PTSUNNY   80  53  39 S15       30.07F
LEE`S SUMMIT   PTSUNNY   80  54  40 SW10      30.09F
ST JOSEPH      PTSUNNY   78  60  53 S10       30.07F
CHILLICOTHE      N/A     80  59  48 VRB5      30.10F
KIRKSVILLE     MOSUNNY   79  60  52 S8        30.13F

$$
MOZ066>068-077>081-088>096-101>105-052000-
...SOUTHWEST MISSOURI...

CITY           SKY/WX    TMP DP  RH WIND       PRES   REMARKS
SPRINGFIELD    PTSUNNY   76  59  55 S10       30.12F
JOPLIN         PTSUNNY   77  62  59 S12       30.09F

$$
MOZ032>034-039>042-045>050-055>058-069>072-052000-
...CENTRAL MISSOURI...

CITY           SKY/WX    TMP DP  RH WIND       PRES   REMARKS
COLUMBIA       PTSUNNY   79  55  43 SW10      30.12F
JEFFERSON CITY MOSUNNY   83  54  36 S12G21    30.10F
ROLLA          PTSUNNY   78  62  57 SE15      30.14F
SEDALIA        MOSUNNY   83  58  42 S8        30.11F
WHITEMAN AFB   PTSUNNY   80  57  45 S12       30.08F
WARRENSBURG    MOSUNNY   79  54  41 S10       30.09F
OSAGE BEACH    PTSUNNY   82  57  42 SW15G23   30.12F

$$
MOZ051-052-059>065-052000-
...EAST CENTRAL MISSOURI...

CITY           SKY/WX    TMP DP  RH WIND       PRES   REMARKS
ST LOUIS INTL  PTSUNNY   83  54  36 SW7       30.15F
SPIRIT OF STL  PTSUNNY   81  55  40 SW6       30.13F
ST CHARLES     MOSUNNY   83  55  38 VRB6      30.13F

$$
MOZ072>076-082>087-097>100-106>115-052000-
...SOUTH CENTRAL AND SOUTHEAST MISSOURI...

CITY           SKY/WX    TMP DP  RH WIND       PRES   REMARKS
CAPE GIRARDEAU MOSUNNY   83  60  45 S9        30.17F
FARMINGTON     PTSUNNY   77  59  53 SW8       30.22F
POPLAR BLUFF   MOSUNNY   83  57  41 SW12      30.16F
WEST PLAINS    MOSUNNY   79  55  43 S14       30.19F

$$



USA.gov is the U.S. government's official web portal to all federal, state and local government web resources and services.